Location: Goll?ig?dem
(16.6773°N, 80.7332°E)
Time: 06:23:56
(UTC+00:00)

CSL-04 Rocket - Pass Details

Date: 21 April 2021
Orbit: 806 x 860 km, 98.9° (Epoch: 06 May)

Event Time Altitude Azimuth Distance (km) Brightness Sun altitude
Exits shadow 14:24:14 14° 176° (S) 2,103 5.5 -21.5°
Maximum altitude 14:28:45 69° 258° (WSW) 863 3.8 -22.5°
Drops below altitude 10° 14:33:59 10° 341° (NNW) 2,385 6.5 -23.7°
Sets 14:36:20 0° 344° (NNW) 3,314 7.3 -24.2°
